GW5398 Weather Reports


time (UTC)temp
F
wind
direction
speed
knots
gust
knots
rain 1hr
in
rain 24hr
in
rain mn
in
humidity
%
barometer
mb
20260507060011 51 113 0.0 0.0 0.00 0.00 0.00 91 1011.2
20260507020512 46 115 0.0 0.0 0.00 0.00 0.00 94 1011.5
20260507020011 46 115 0.0 0.0 0.00 0.00 0.00 94 1011.5
20260507015510 46 109 0.9 1.7 0.00 0.00 0.00 95 1011.5
20260507015010 46 110 0.9 0.9 0.00 0.00 0.00 94 1011.9
20260507014510 46 117 0.0 0.0 0.00 0.00 0.00 94 1011.5
20260507014009 46 117 0.0 0.0 0.00 0.00 0.00 94 1011.2
20260507013509 46 117 0.0 0.0 0.00 0.00 0.00 94 1011.9
20260507013010 46 117 0.0 0.0 0.00 0.00 0.00 94 1011.5
20260507012511 46 117 0.0 0.0 0.00 0.00 0.00 94 1011.9
20260507012009 46 117 0.0 0.0 0.00 0.00 0.00 94 1011.9
20260507011511 46 117 0.0 0.0 0.00 0.00 0.00 94 1011.9
20260507011010 46 117 0.0 0.9 0.00 0.00 0.00 94 1011.5
20260507010511 46 117 0.0 0.0 0.00 0.00 0.00 93 1011.5
20260507010012 46 117 0.0 0.0 0.00 0.00 0.00 93 1011.9
20260507005031 46 117 0.0 0.0 0.00 0.00 0.00 93 1011.9
20260507004511 46 117 0.0 0.0 0.00 0.00 0.00 93 1011.9
20260507004010 46 116 0.0 0.9 0.00 0.00 0.00 93 1011.9
20260507003509 46 119 0.0 0.0 0.00 0.00 0.00 93 1012.2
20260507003010 46 119 0.0 0.0 0.00 0.00 0.00 93 1011.9